Showing default

ORBCOMM FM 16, 25417

Orbit data source: Space-Track

ORBCOMM FM 16, 25417 is a payload satellite owned by Orbcomm (US) in LEO that was launched on Sun, 02 Aug 1998 UTC via a PEGASUS XL/HAPS launch vehicle from the Pegasus Launch, Eastern Range Air Space (ERAS). Payload-class satellites include a variety of spacecraft equipped with specific instruments for various scientific and technological missions. These include communications satellites like Starlink; space stations such as the ISS; scientific satellites like the Hubble; Earth observation satellites from companies like Planet Labs, Umbra, and HawkEye 360; GPS; miniature CubeSats for education and research; and military/defense satellites.

Loading next visibility...
Identifier
25417, 1998-046E
Orbit
LEO
Country
Flag of USUS / ORB
Related business
Manufacturer
OSC-Germantown
Mission
Non-operational Commercial Communications
Bus & Motor
MICROSTAR, Unknown motor
Mass
42 kg wet, 42 kg dry
Launch date (UTC)
1998-08-02 (27 years ago)
Launch vehicle
PEGASUS XL/HAPS
Launch site
Pegasus Launch, Eastern Range Air Space (ERAS)
Object type
Payload
Rocket body
Debris
Shape & HBR
Cyl + 2 Pan, 4.2 m
Radar Cross Section
1.484 m², Medium (>0.1 m² and < 1m²)

Expand to show TLE details & history
Last TLE update: 16 hours ago

TLE from 16 hours ago
0 ORBCOMM FM 16
1 25417U 98046E   25293.97645945  .00002630  00000-0  88414-3 0  9995
2 25417  44.9930 295.3341 0005858 236.7355 123.2932 14.39301245422376
Epoch: 2025-10-20T23:26Z
TLE epoch observation values (Epoch: 2025-10-20T23:26:06.096Z)
Latitude
-0.00006°
Longitude
-85.86241°
Altitude
763.103 km
Speed
7.473 km/s
True Right ascension
19h 41m 20s
True Declination
0° 00' 00"
Sunlit
Object was in daylight at epoch
Visualization orbit readout
Latitude
Unknown
Longitude
Unknown
Altitude
Unknown
Speed
Unknown
Apparent Right ascension
Unknown
Apparent Declination
Unknown
Sunlit
N/A
Visualization observer readout
Local Sidereal Time
10:01:23
Azimuth
Unknown
Elevation
Unknown
Doppler factor
Unknown
Orbital elements
Apogee altitude
766.539 km
Perigee altitude
758.173 km
Semi-major axis
7,140.493 km
Eccentricity
0.00059
Inclination
44.993°
RAAN
295.3341°
Arg. of periapsis
236.7355°
True anomaly
123.34929°
Mean anomaly
123.2932°
Eccentric anomaly
123.32125°
Mean motion
3.59709 °/min
Orbital period
100.08 mins
BSTAR
0.00088414
Loading maneuver chart data...
Computing Atmospheric mass density...

Documentation

Showing up to 5 results
|